DW4360 Weather Reports


time (UTC)temp
C
wind
direction
speed
KPH
gust
KPH
rain 1hr
cm
rain 24hr
cm
rain mn
cm
humidity
%
barometer
mb
20260502151846 11 315 0.0 0.0 0.00 0.00 0.00 83 1015.1
20260502150846 11 309 0.0 0.0 0.00 0.00 0.00 83 1015.2
20260502122829 11 313 0.0 0.0 0.00 0.00 0.00 84 1014.9
20260502121828 11 315 0.0 0.0 0.00 0.00 0.00 84 1014.8
20260502120827 11 346 0.0 0.0 0.00 0.00 0.00 84 1014.8
20260502115826 11 302 0.0 0.0 0.00 0.00 0.00 84 1014.8
20260502112823 11 338 0.0 0.0 0.00 0.00 0.00 84 1015.0
20260502111822 11 321 3.2 0.0 0.00 0.00 0.00 84 1014.9
20260502110821 11 302 0.0 0.0 0.00 0.00 0.00 85 1014.7
20260502105820 11 302 0.0 0.0 0.00 0.00 0.00 85 1014.9
20260502102817 11 302 0.0 0.0 0.00 0.00 0.00 84 1015.1
20260502100815 11 302 0.0 0.0 0.00 0.00 0.00 83 1014.5
20260502090809 12 302 0.0 0.0 0.00 0.00 0.00 83 1016.3
20260502070757 13 318 0.0 0.0 0.00 0.00 0.00 75 1015.7
20260502065756 13 319 0.0 0.0 0.00 0.00 0.00 74 1015.7
20260502064754 13 318 0.0 0.0 0.00 0.00 0.00 74 1015.7
20260502063754 13 321 0.0 0.0 0.00 0.00 0.00 74 1015.7
20260502062752 13 321 0.0 0.0 0.00 0.00 0.00 74 1015.7
20260502061751 14 321 0.0 0.0 0.00 0.00 0.00 74 1015.6
20260502055750 14 321 0.0 0.0 0.00 0.00 0.00 72 1015.5
20260502054749 14 323 0.0 0.0 0.00 0.00 0.00 72 1015.4
20260502053747 15 315 0.0 0.0 0.00 0.00 0.00 72 1015.3
20260502052746 15 319 0.0 0.0 0.00 0.00 0.00 71 1015.2
20260502051746 15 318 4.8 0.0 0.00 0.00 0.00 70 1015.2
20260502045744 16 305 0.0 0.0 0.00 0.00 0.00 69 1015.0
20260502044742 16 318 3.2 0.0 0.00 0.00 0.00 68 1015.0
20260502043741 16 322 0.0 0.0 0.00 0.00 0.00 67 1015.0
20260502042740 17 318 0.0 0.0 0.00 0.00 0.00 67 1014.8
20260502041739 17 318 0.0 0.0 0.00 0.00 0.00 66 1014.5
20260502040738 17 318 0.0 0.0 0.00 0.00 0.00 66 1014.4
20260502035738 18 306 0.0 0.0 0.00 0.00 0.00 64 1014.1
20260502034736 18 316 0.0 0.0 0.00 0.00 0.00 64 1013.9
20260502033735 18 341 0.0 0.0 0.00 0.00 0.00 63 1013.8
20260502032734 18 319 0.0 0.0 0.00 0.00 0.00 62 1013.7
20260502031734 19 329 0.0 0.0 0.00 0.00 0.00 62 1013.6
20260502030732 20 324 0.0 0.0 0.00 0.00 0.00 62 1013.5
20260502025732 20 324 0.0 0.0 0.00 0.00 0.00 61 1013.3
20260502024730 20 322 0.0 0.0 0.00 0.00 0.00 60 1013.1
20260502021727 21 319 3.2 0.0 0.00 0.00 0.00 56 1012.7
20260502020726 21 327 0.0 0.0 0.00 0.00 0.00 55 1012.7
20260502014724 22 308 0.0 0.0 0.00 0.00 0.00 55 1012.5
20260502013723 23 329 0.0 0.0 0.00 0.00 0.00 56 1012.6
20260502012722 23 308 0.0 0.0 0.00 0.00 0.00 53 1012.6
20260502011721 23 320 3.2 0.0 0.00 0.00 0.00 53 1012.5
20260502010720 23 314 0.0 0.0 0.00 0.00 0.00 51 1012.4
20260502005719 24 315 12.9 0.0 0.00 0.00 0.00 50 1012.4
20260502004718 25 321 0.0 0.0 0.00 0.00 0.00 46 1012.4
20260502003717 25 323 0.0 0.0 0.00 0.00 0.00 44 1012.5
20260502002716 26 318 0.0 0.0 0.00 0.00 0.00 39 1012.3
20260502001715 26 322 0.0 0.0 0.00 0.00 0.00 39 1012.5
20260501234712 26 316 0.0 0.0 0.00 0.00 0.00 41 1012.4
20260501233711 26 316 0.0 0.0 0.00 0.00 0.00 43 1012.6
20260501231709 25 150 0.0 0.0 0.00 0.00 0.00 47 1012.7
20260501230708 25 328 4.8 0.0 0.00 0.00 0.00 45 1012.9
20260501224706 25 215 4.8 0.0 0.00 0.00 0.00 46 1013.1
20260501222704 25 144 0.0 0.0 0.00 0.00 0.00 48 1013.4
20260501221703 25 347 0.0 0.0 0.00 0.00 0.00 48 1013.4
20260501220702 25 157 0.0 0.0 0.00 0.00 0.00 48 1013.6
20260501215701 24 156 0.0 0.0 0.00 0.00 0.00 51 1013.7
20260501214700 24 157 0.0 0.0 0.00 0.00 0.00 49 1013.8
20260501213659 24 149 0.0 0.0 0.00 0.00 0.00 49 1013.9
20260501212658 24 196 0.0 0.0 0.00 0.00 0.00 47 1014.1
20260501211656 24 188 0.0 0.0 0.00 0.00 0.00 49 1014.2
20260501210656 23 180 0.0 0.0 0.00 0.00 0.00 50 1014.3
20260501205654 23 233 0.0 0.0 0.00 0.00 0.00 48 1014.4
20260501204653 23 225 0.0 0.0 0.00 0.00 0.00 48 1014.5
20260501203652 23 224 0.0 0.0 0.00 0.00 0.00 51 1014.6
20260501202651 23 13 0.0 0.0 0.00 0.00 0.00 52 1014.8
20260501200650 22 279 3.2 0.0 0.00 0.00 0.00 52 1014.8
20260501195648 22 194 0.0 0.0 0.00 0.00 0.00 54 1014.9
20260501194648 22 234 0.0 0.0 0.00 0.00 0.00 53 1014.9
20260501193646 21 234 0.0 0.0 0.00 0.00 0.00 56 1015.0
20260501191644 21 225 0.0 0.0 0.00 0.00 0.00 56 1015.2
20260501190644 21 225 0.0 0.0 0.00 0.00 0.00 55 1015.2
20260501184641 21 208 0.0 0.0 0.00 0.00 0.00 56 1015.4
20260501182639 20 209 0.0 0.0 0.00 0.00 0.00 58 1015.5
20260501181638 20 212 0.0 0.0 0.00 0.00 0.00 57 1015.5
20260501180637 20 201 4.8 0.0 0.00 0.00 0.00 59 1015.6
20260501175636 19 201 0.0 0.0 0.00 0.00 0.00 61 1015.7
20260501174636 18 199 0.0 0.0 0.00 0.00 0.00 64 1015.7
20260501173634 18 169 0.0 0.0 0.00 0.00 0.00 64 1015.7
20260501172634 17 169 1.6 0.0 0.00 0.00 0.00 66 1015.7
20260501171632 16 163 0.0 0.0 0.00 0.00 0.00 71 1015.6
20260501165630 15 159 0.0 0.0 0.00 0.00 0.00 74 1015.8
20260501163628 15 176 0.0 0.0 0.00 0.00 0.00 74 1015.9
20260501162627 15 176 0.0 0.0 0.00 0.00 0.00 76 1016.1
20260501160625 14 176 0.0 0.0 0.00 0.00 0.00 78 1016.1
20260501155624 14 176 0.0 0.0 0.00 0.00 0.00 78 1016.1